Location: *
(43.6428°N, 11.5461°E)
Time: 02:28:21
(UTC+00:00)

Cosmos 1898 Rocket - Pass Details

Date: 21 October 2019
Orbit: 753 x 784 km, 74.0° (Epoch: 20 November)

Event Time Altitude Azimuth Distance (km) Brightness Sun altitude
Rises 18:42:08 0° 338° (NNW) 3,253 7.2 -26.1°
Reaches altitude 10° 18:44:30 10° 337° (NNW) 2,327 6.4 -26.5°
Maximum altitude 18:49:48 79° 252° (WSW) 797 3.5 -27.5°
Enters shadow 18:50:03 76° 216° (SW) 804 3.5 -27.5°
